﻿測定場所 (Monitoring sites),日付 (Measurement date),時間 (Measurement time),線量率 最大値 (max) μGy/h,線量率 最小値 (min) μGy/h,線量率 平均値 (average) μGy/h,
小平 (Kodaira),2022-12-25,23:01～24:00,0.0312,0.0262,0.0293,
小平 (Kodaira),2022-12-25,22:01～23:00,0.0316,0.0272,0.0294,
小平 (Kodaira),2022-12-25,21:01～22:00,0.0314,0.0271,0.0290,
小平 (Kodaira),2022-12-25,20:01～21:00,0.0308,0.0270,0.0291,
小平 (Kodaira),2022-12-25,19:01～20:00,0.0311,0.0276,0.0293,
小平 (Kodaira),2022-12-25,18:01～19:00,0.0324,0.0275,0.0296,
小平 (Kodaira),2022-12-25,17:01～18:00,0.0308,0.0275,0.0291,
小平 (Kodaira),2022-12-25,16:01～17:00,0.0310,0.0278,0.0293,
小平 (Kodaira),2022-12-25,15:01～16:00,0.0315,0.0277,0.0293,
小平 (Kodaira),2022-12-25,14:01～15:00,0.0311,0.0277,0.0295,
小平 (Kodaira),2022-12-25,13:01～14:00,0.0312,0.0273,0.0294,
小平 (Kodaira),2022-12-25,12:01～13:00,0.0314,0.0273,0.0295,
小平 (Kodaira),2022-12-25,11:01～12:00,0.0326,0.0278,0.0300,
小平 (Kodaira),2022-12-25,10:01～11:00,0.0324,0.0284,0.0304,
小平 (Kodaira),2022-12-25,09:01～10:00,0.0322,0.0282,0.0301,
小平 (Kodaira),2022-12-25,08:01～09:00,0.0332,0.0281,0.0306,
小平 (Kodaira),2022-12-25,07:01～08:00,0.0317,0.0279,0.0301,
小平 (Kodaira),2022-12-25,06:01～07:00,0.0328,0.0287,0.0304,
小平 (Kodaira),2022-12-25,05:01～06:00,0.0323,0.0287,0.0303,
小平 (Kodaira),2022-12-25,04:01～05:00,0.0326,0.0285,0.0304,
小平 (Kodaira),2022-12-25,03:01～04:00,0.0323,0.0283,0.0303,
小平 (Kodaira),2022-12-25,02:01～03:00,0.0319,0.0279,0.0301,
小平 (Kodaira),2022-12-25,01:01～02:00,0.0312,0.0282,0.0296,
小平 (Kodaira),2022-12-25,00:01～01:00,0.0319,0.0272,0.0296,
小平 (Kodaira),2022-12-24,23:01～24:00,0.0325,0.0287,0.0304,
小平 (Kodaira),2022-12-24,22:01～23:00,0.0327,0.0280,0.0299,
小平 (Kodaira),2022-12-24,21:01～22:00,0.0313,0.0276,0.0297,
小平 (Kodaira),2022-12-24,20:01～21:00,0.0311,0.0276,0.0295,
小平 (Kodaira),2022-12-24,19:01～20:00,0.0317,0.0280,0.0295,
小平 (Kodaira),2022-12-24,18:01～19:00,0.0309,0.0279,0.0292,
小平 (Kodaira),2022-12-24,17:01～18:00,0.0312,0.0277,0.0295,
小平 (Kodaira),2022-12-24,16:01～17:00,0.0314,0.0261,0.0292,
小平 (Kodaira),2022-12-24,15:01～16:00,0.0311,0.0275,0.0295,
小平 (Kodaira),2022-12-24,14:01～15:00,0.0320,0.0276,0.0297,
小平 (Kodaira),2022-12-24,13:01～14:00,0.0321,0.0271,0.0298,
小平 (Kodaira),2022-12-24,12:01～13:00,0.0327,0.0283,0.0303,
小平 (Kodaira),2022-12-24,11:01～12:00,0.0321,0.0287,0.0305,
小平 (Kodaira),2022-12-24,10:01～11:00,0.0322,0.0283,0.0304,
小平 (Kodaira),2022-12-24,09:01～10:00,0.0316,0.0277,0.0299,
小平 (Kodaira),2022-12-24,08:01～09:00,0.0320,0.0277,0.0298,
小平 (Kodaira),2022-12-24,07:01～08:00,0.0319,0.0282,0.0298,
小平 (Kodaira),2022-12-24,06:01～07:00,0.0320,0.0277,0.0297,
小平 (Kodaira),2022-12-24,05:01～06:00,0.0316,0.0281,0.0297,
小平 (Kodaira),2022-12-24,04:01～05:00,0.0321,0.0283,0.0299,
小平 (Kodaira),2022-12-24,03:01～04:00,0.0318,0.0280,0.0298,
小平 (Kodaira),2022-12-24,02:01～03:00,0.0316,0.0277,0.0297,
小平 (Kodaira),2022-12-24,01:01～02:00,0.0326,0.0268,0.0296,
小平 (Kodaira),2022-12-24,00:01～01:00,0.0323,0.0283,0.0296,
小平 (Kodaira),2022-12-23,23:01～24:00,0.0314,0.0276,0.0298,
小平 (Kodaira),2022-12-23,22:01～23:00,0.0322,0.0279,0.0297,
小平 (Kodaira),2022-12-23,21:01～22:00,0.0320,0.0274,0.0296,
小平 (Kodaira),2022-12-23,20:01～21:00,0.0320,0.0276,0.0295,
小平 (Kodaira),2022-12-23,19:01～20:00,0.0308,0.0277,0.0293,
小平 (Kodaira),2022-12-23,18:01～19:00,0.0312,0.0273,0.0294,
小平 (Kodaira),2022-12-23,17:01～18:00,0.0320,0.0272,0.0294,
小平 (Kodaira),2022-12-23,16:01～17:00,0.0312,0.0270,0.0292,
小平 (Kodaira),2022-12-23,15:01～16:00,0.0317,0.0267,0.0294,
小平 (Kodaira),2022-12-23,14:01～15:00,0.0318,0.0273,0.0295,
小平 (Kodaira),2022-12-23,13:01～14:00,0.0319,0.0277,0.0297,
小平 (Kodaira),2022-12-23,12:01～13:00,0.0324,0.0268,0.0297,
小平 (Kodaira),2022-12-23,11:01～12:00,0.0315,0.0277,0.0295,
小平 (Kodaira),2022-12-23,10:01～11:00,0.0313,0.0268,0.0293,
小平 (Kodaira),2022-12-23,09:01～10:00,0.0317,0.0267,0.0292,
小平 (Kodaira),2022-12-23,08:01～09:00,0.0311,0.0276,0.0293,
小平 (Kodaira),2022-12-23,07:01～08:00,0.0307,0.0266,0.0292,
小平 (Kodaira),2022-12-23,06:01～07:00,0.0320,0.0277,0.0298,
小平 (Kodaira),2022-12-23,05:01～06:00,0.0322,0.0276,0.0295,
小平 (Kodaira),2022-12-23,04:01～05:00,0.0326,0.0279,0.0295,
小平 (Kodaira),2022-12-23,03:01～04:00,0.0324,0.0271,0.0296,
小平 (Kodaira),2022-12-23,02:01～03:00,0.0310,0.0271,0.0296,
小平 (Kodaira),2022-12-23,01:01～02:00,0.0316,0.0281,0.0295,
小平 (Kodaira),2022-12-23,00:01～01:00,0.0317,0.0275,0.0292,
小平 (Kodaira),2022-12-22,23:01～24:00,0.0307,0.0272,0.0290,
小平 (Kodaira),2022-12-22,22:01～23:00,0.0322,0.0268,0.0290,
小平 (Kodaira),2022-12-22,21:01～22:00,0.0313,0.0274,0.0294,
小平 (Kodaira),2022-12-22,20:01～21:00,0.0316,0.0281,0.0297,
小平 (Kodaira),2022-12-22,19:01～20:00,0.0310,0.0270,0.0292,
小平 (Kodaira),2022-12-22,18:01～19:00,0.0322,0.0277,0.0294,
小平 (Kodaira),2022-12-22,17:01～18:00,0.0313,0.0274,0.0292,
小平 (Kodaira),2022-12-22,16:01～17:00,0.0315,0.0271,0.0292,
小平 (Kodaira),2022-12-22,15:01～16:00,0.0318,0.0280,0.0295,
小平 (Kodaira),2022-12-22,14:01～15:00,0.0322,0.0269,0.0300,
小平 (Kodaira),2022-12-22,13:01～14:00,0.0333,0.0282,0.0312,
小平 (Kodaira),2022-12-22,12:01～13:00,0.0367,0.0303,0.0334,
小平 (Kodaira),2022-12-22,11:01～12:00,0.0449,0.0352,0.0388,
小平 (Kodaira),2022-12-22,10:01～11:00,0.0476,0.0367,0.0420,
小平 (Kodaira),2022-12-22,09:01～10:00,0.0422,0.0362,0.0383,
小平 (Kodaira),2022-12-22,08:01～09:00,0.0431,0.0355,0.0385,
小平 (Kodaira),2022-12-22,07:01～08:00,0.0425,0.0356,0.0385,
小平 (Kodaira),2022-12-22,06:01～07:00,0.0424,0.0360,0.0381,
小平 (Kodaira),2022-12-22,05:01～06:00,0.0421,0.0362,0.0388,
小平 (Kodaira),2022-12-22,04:01～05:00,0.0409,0.0335,0.0366,
小平 (Kodaira),2022-12-22,03:01～04:00,0.0359,0.0296,0.0323,
小平 (Kodaira),2022-12-22,02:01～03:00,0.0327,0.0279,0.0306,
小平 (Kodaira),2022-12-22,01:01～02:00,0.0332,0.0288,0.0308,
小平 (Kodaira),2022-12-22,00:01～01:00,0.0342,0.0287,0.0312,
小平 (Kodaira),2022-12-21,23:01～24:00,0.0335,0.0295,0.0315,
小平 (Kodaira),2022-12-21,22:01～23:00,0.0347,0.0308,0.0325,
小平 (Kodaira),2022-12-21,21:01～22:00,0.0335,0.0286,0.0309,
小平 (Kodaira),2022-12-21,20:01～21:00,0.0325,0.0280,0.0303,
小平 (Kodaira),2022-12-21,19:01～20:00,0.0323,0.0284,0.0302,
小平 (Kodaira),2022-12-21,18:01～19:00,0.0324,0.0278,0.0298,
小平 (Kodaira),2022-12-21,17:01～18:00,0.0317,0.0275,0.0298,
小平 (Kodaira),2022-12-21,16:01～17:00,0.0313,0.0278,0.0298,
小平 (Kodaira),2022-12-21,15:01～16:00,0.0326,0.0276,0.0301,
小平 (Kodaira),2022-12-21,14:01～15:00,0.0326,0.0279,0.0301,
小平 (Kodaira),2022-12-21,13:01～14:00,0.0324,0.0283,0.0302,
小平 (Kodaira),2022-12-21,12:01～13:00,0.0322,0.0286,0.0302,
小平 (Kodaira),2022-12-21,11:01～12:00,0.0321,0.0281,0.0305,
小平 (Kodaira),2022-12-21,10:01～11:00,0.0330,0.0286,0.0309,
小平 (Kodaira),2022-12-21,09:01～10:00,0.0332,0.0292,0.0312,
小平 (Kodaira),2022-12-21,08:01～09:00,0.0342,0.0288,0.0315,
小平 (Kodaira),2022-12-21,07:01～08:00,0.0338,0.0301,0.0317,
小平 (Kodaira),2022-12-21,06:01～07:00,0.0330,0.0292,0.0314,
小平 (Kodaira),2022-12-21,05:01～06:00,0.0345,0.0291,0.0313,
小平 (Kodaira),2022-12-21,04:01～05:00,0.0346,0.0301,0.0321,
小平 (Kodaira),2022-12-21,03:01～04:00,0.0338,0.0298,0.0315,
小平 (Kodaira),2022-12-21,02:01～03:00,0.0329,0.0291,0.0310,
小平 (Kodaira),2022-12-21,01:01～02:00,0.0328,0.0289,0.0309,
小平 (Kodaira),2022-12-21,00:01～01:00,0.0324,0.0279,0.0307,
小平 (Kodaira),2022-12-20,23:01～24:00,0.0323,0.0286,0.0306,
小平 (Kodaira),2022-12-20,22:01～23:00,0.0328,0.0286,0.0304,
小平 (Kodaira),2022-12-20,21:01～22:00,0.0318,0.0278,0.0301,
小平 (Kodaira),2022-12-20,20:01～21:00,0.0312,0.0285,0.0299,
小平 (Kodaira),2022-12-20,19:01～20:00,0.0322,0.0280,0.0298,
小平 (Kodaira),2022-12-20,18:01～19:00,0.0324,0.0271,0.0292,
小平 (Kodaira),2022-12-20,17:01～18:00,0.0320,0.0272,0.0291,
小平 (Kodaira),2022-12-20,16:01～17:00,0.0312,0.0263,0.0287,
小平 (Kodaira),2022-12-20,15:01～16:00,0.0307,0.0272,0.0291,
小平 (Kodaira),2022-12-20,14:01～15:00,0.0314,0.0277,0.0294,
小平 (Kodaira),2022-12-20,13:01～14:00,0.0319,0.0274,0.0295,
小平 (Kodaira),2022-12-20,12:01～13:00,0.0316,0.0280,0.0295,
小平 (Kodaira),2022-12-20,11:01～12:00,0.0329,0.0275,0.0301,
小平 (Kodaira),2022-12-20,10:01～11:00,0.0318,0.0287,0.0303,
小平 (Kodaira),2022-12-20,09:01～10:00,0.0323,0.0284,0.0302,
小平 (Kodaira),2022-12-20,08:01～09:00,0.0327,0.0285,0.0302,
小平 (Kodaira),2022-12-20,07:01～08:00,0.0337,0.0281,0.0311,
小平 (Kodaira),2022-12-20,06:01～07:00,0.0335,0.0292,0.0311,
小平 (Kodaira),2022-12-20,05:01～06:00,0.0334,0.0285,0.0310,
小平 (Kodaira),2022-12-20,04:01～05:00,0.0330,0.0282,0.0305,
小平 (Kodaira),2022-12-20,03:01～04:00,0.0331,0.0281,0.0309,
小平 (Kodaira),2022-12-20,02:01～03:00,0.0339,0.0276,0.0305,
小平 (Kodaira),2022-12-20,01:01～02:00,0.0323,0.0291,0.0307,
小平 (Kodaira),2022-12-20,00:01～01:00,0.0331,0.0284,0.0311,
小平 (Kodaira),2022-12-19,23:01～24:00,0.0324,0.0286,0.0306,
小平 (Kodaira),2022-12-19,22:01～23:00,0.0323,0.0281,0.0302,
小平 (Kodaira),2022-12-19,21:01～22:00,0.0320,0.0286,0.0302,
小平 (Kodaira),2022-12-19,20:01～21:00,0.0319,0.0275,0.0297,
小平 (Kodaira),2022-12-19,19:01～20:00,0.0309,0.0276,0.0294,
小平 (Kodaira),2022-12-19,18:01～19:00,0.0306,0.0267,0.0289,
小平 (Kodaira),2022-12-19,17:01～18:00,0.0312,0.0269,0.0291,
小平 (Kodaira),2022-12-19,16:01～17:00,0.0310,0.0275,0.0291,
小平 (Kodaira),2022-12-19,15:01～16:00,0.0305,0.0273,0.0291,
小平 (Kodaira),2022-12-19,14:01～15:00,0.0316,0.0279,0.0296,
小平 (Kodaira),2022-12-19,13:01～14:00,0.0317,0.0277,0.0297,
小平 (Kodaira),2022-12-19,12:01～13:00,0.0319,0.0275,0.0296,
小平 (Kodaira),2022-12-19,11:01～12:00,0.0313,0.0274,0.0297,
小平 (Kodaira),2022-12-19,10:01～11:00,0.0310,0.0282,0.0296,
小平 (Kodaira),2022-12-19,09:01～10:00,0.0321,0.0270,0.0293,
小平 (Kodaira),2022-12-19,08:01～09:00,0.0321,0.0281,0.0298,
小平 (Kodaira),2022-12-19,07:01～08:00,0.0320,0.0278,0.0296,
小平 (Kodaira),2022-12-19,06:01～07:00,0.0315,0.0279,0.0296,
小平 (Kodaira),2022-12-19,05:01～06:00,0.0311,0.0281,0.0297,
小平 (Kodaira),2022-12-19,04:01～05:00,0.0314,0.0267,0.0295,
小平 (Kodaira),2022-12-19,03:01～04:00,0.0306,0.0276,0.0294,
小平 (Kodaira),2022-12-19,02:01～03:00,0.0311,0.0269,0.0293,
小平 (Kodaira),2022-12-19,01:01～02:00,0.0306,0.0276,0.0293,
小平 (Kodaira),2022-12-19,00:01～01:00,0.0311,0.0267,0.0290,
